ARG1036 SAVE-SAZS

Flight info

Callsign ARG1036
Flight time N/A
Altitude 16000
Route TORES TORES2Q
Aircraft CRJ7/M-SDFGIRWY/S

Departure

Time 2026-05-05 22:28
Airport Esquel Brigadier Antonio Parodi International Airport (SAVE)

Arrival

Time N/A
Airport Teniente Luis Candelaria International Airport (SAZS)
Time Latitude Longitude Altitude Speed Heading
2026-05-05 22:04 -42.90648 -71.14594 2634 ft 0 kts 275°
2026-05-05 22:24 -42.90648 -71.14595 2634 ft 0 kts 275°
2026-05-05 22:24 -42.90658 -71.14620 2634 ft 5 kts 205°
2026-05-05 22:24 -42.90690 -71.14607 2634 ft 7 kts 148°
2026-05-05 22:24 -42.90701 -71.14598 2634 ft 0 kts 148°
2026-05-05 22:25 -42.90701 -71.14597 2634 ft 0 kts 148°
2026-05-05 22:25 -42.90713 -71.14588 2634 ft 8 kts 152°
2026-05-05 22:26 -42.90787 -71.14594 2635 ft 25 kts 204°
2026-05-05 22:26 -42.90913 -71.14701 2635 ft 16 kts 237°
2026-05-05 22:26 -42.90932 -71.14734 2635 ft 1 kts 168°
2026-05-05 22:26 -42.90934 -71.14729 2635 ft 1 kts 102°
2026-05-05 22:27 -42.90931 -71.14714 2635 ft 0 kts 67°
2026-05-05 22:27 -42.90928 -71.14707 2635 ft 0 kts 51°
2026-05-05 22:27 -42.90799 -71.14438 2635 ft 72 kts 58°
2026-05-05 22:28 -42.90406 -71.13615 2637 ft 129 kts 57°
2026-05-05 22:28 -42.89860 -71.12457 2671 ft 161 kts 58°
2026-05-05 22:28 -42.89306 -71.11310 3749 ft 124 kts 44°
2026-05-05 22:28 -42.88621 -71.10643 4474 ft 135 kts 24°
2026-05-05 22:29 -42.87616 -71.09941 4598 ft 184 kts 23°
2026-05-05 22:29 -42.86260 -71.09605 4838 ft 218 kts 344°
2026-05-05 22:29 -42.84875 -71.10718 5095 ft 254 kts 315°
2026-05-05 22:29 -42.83331 -71.12263 5366 ft 299 kts 328°
2026-05-05 22:30 -42.81377 -71.13585 5649 ft 327 kts 335°
2026-05-05 22:30 -42.79118 -71.14547 5901 ft 352 kts 344°
2026-05-05 22:30 -42.76641 -71.15053 6176 ft 365 kts 352°
2026-05-05 22:30 -42.74074 -71.15190 6421 ft 366 kts 356°
2026-05-05 22:31 -42.71632 -71.15150 6641 ft 347 kts 358°
2026-05-05 22:31 -42.69278 -71.15085 6853 ft 332 kts 357°
2026-05-05 22:31 -42.67030 -71.15037 7336 ft 312 kts 357°
2026-05-05 22:31 -42.64929 -71.15031 7805 ft 293 kts 355°
2026-05-05 22:32 -42.62951 -71.15050 8291 ft 277 kts 355°
2026-05-05 22:32 -42.61072 -71.15072 8773 ft 263 kts 354°
2026-05-05 22:32 -42.59281 -71.15100 9292 ft 250 kts 354°